Location: Unspecified
(49.9820°N, 20.4363°E)
Time: 22:52:52
(UTC+02:00)

ISS - Visible Passes

Search period start: 01 October 2022 00:00
Search period end: 11 October 2022 00:00
Orbit: 416 x 420 km, 51.6° (Epoch: 01 October)

Date Brightness Start Highest point End Pass type
(mag) Time Alt. Az. Time Alt. Az. Time Alt. Az.
01 Oct -3.5 18:56:28 10° WNW 18:59:51 69° SSW 19:03:12 10° ESE visible
01 Oct -1.4 20:33:52 10° W 20:36:11 17° SW 20:36:14 17° SW visible
02 Oct -1.9 19:45:43 10° W 19:48:34 25° SW 19:50:31 15° SSE visible
03 Oct -2.4 18:58:06 10° W 19:01:16 36° SSW 19:04:24 10° SE visible
04 Oct -0.8 19:49:13 10° WSW 19:50:29 12° SW 19:51:46 10° SSW visible
05 Oct -1.1 19:01:39 10° W 19:04:00 17° SW 19:06:20 10° S visible
